FENGYUN 1C DEB, 30229

Orbit data source: Space-Track

FENGYUN 1C DEB, 30229 is space debris in SSO originally from a launch on Mon, 10 May 1999 UTC launched from the Taiyaun Space Center, China (TSC). Fengyun 1C debris stems from the Chinese weather satellite Fengyun-1C, which was intentionally destroyed by a Chinese anti-satellite missile in 2007. This event dramatically increased the amount of space debris, with thousands of trackable fragments posing hazards to satellites and human spaceflight. The Fengyun 1C debris cloud has become a focal point in discussions about space sustainability and the need for international regulations to prevent the creation of new debris.

Loading next visibility...
Identifier
30229, 1999-025WN
Orbit
SSO
Country
Flag of CNCN / PRC
Related business
Manufacturer
Unknown
Mission
Spacecraft
Bus & Motor
Unknown
Mass
Unknown
Launch date (UTC)
1999-05-10 (27 years ago)
Launch vehicle
Unknown
Launch site
Taiyaun Space Center, China (TSC)
Object type
Payload
Rocket body
Debris
Shape & HBR
Unknown shape, 0.1 m
Radar Cross Section
Medium (>0.1 m² and <1 m²)

Expand to show TLE details & history
Last TLE update: 6 hours ago

TLE from 6 hours ago
0 FENGYUN 1C DEB
1 30229U 99025WN  26238.50808153  .00004911  00000-0  93145-3 0  9992
2 30229  99.0453 327.7341 0033990 336.2761  36.1942 14.64404207 26709
Epoch: 2026-08-26T12:11Z
TLE epoch observation values (Epoch: 2026-08-26T12:11:38.244Z)
Latitude
12.50066°
Longitude
168.05296°
Altitude
661.859 km
Speed
7.538 km/s
True Right ascension
21h 42m 53s
True Declination
12° 25' 38"
Sunlit
Object was in full shadow at epoch
Visualization orbit readout
Latitude
Unknown
Longitude
Unknown
Altitude
Unknown
Speed
Unknown
Apparent Right ascension
Unknown
Apparent Declination
Unknown
Sunlit
N/A
Visualization observer readout
Local Sidereal Time
09:32:56
Azimuth
Unknown
Elevation
Unknown
Doppler factor
Unknown
Orbital elements
Apogee altitude
700.082 km
Perigee altitude
652.128 km
Semi-major axis
7,054.242 km
Eccentricity
0.0034
Inclination
99.0453°
RAAN
327.7341°
Arg. of periapsis
336.2761°
True anomaly
36.425°
Mean anomaly
36.1942°
Eccentric anomaly
36.30952°
Mean motion
3.66326 °/min
Orbital period
98.27 mins
BSTAR
0.00093145
Loading maneuver chart data...
Computing Atmospheric mass density...
Loading historical data...
Loading historical data...
Loading historical data...
Loading historical data...
Loading historical data...
Loading historical data...
Loading historical data...

Documentation

Showing up to 5 results
|